[[{"header":{"parameterUnit":"m.s-1","parameterCategory":2,"la1":30.2992,"la2":30.254,"lo1":-89.0895,"lo2":-89.0443,"dy":0.0025,"dx":0.0025,"nx":19,"ny":19,"refTime":"2026-05-20T09:00:00:Z","depth":"0","parameterNumber":2,"parameterNumberName":"U-component_of_CURRENTS"},"data":[0,0,0,0.2563,0.2565,0.2677,0.2677,0.2744,0.2744,0,0,0,0,0,0,0,0,0,0,0,0.2519,0.252,0.2562,0.2566,0.2677,0.2677,0.2744,0.2744,0,0,0,0,0,0,0,0,0,0,0,0.2519,0.252,0.2521,0.2566,0.2677,0.2677,0.2744,0.2676,0,0,0,0,0,0,0,0,0,0,0.2576,0.2542,0.2519,0.2521,0.2567,0.2677,0.2677,0.2673,0.268,0.2675,0,0.2702,0,0.2731,0.2748,0.2748,0,0,0,0.2555,0.2537,0.2579,0.2521,0.2568,0.2677,0.2624,0.2677,0.2685,0.2683,0.2703,0.2707,0.2732,0.2748,0.2749,0.2892,0.2893,0,0,0.2549,0.2525,0.2574,0.2584,0.2609,0.262,0.2627,0.2683,0.2686,0.2704,0.2709,0.2733,0.2749,0.2749,0.2891,0.2892,0,0,0,0.2538,0.252,0.2562,0.258,0.261,0.2624,0.2632,0.2684,0.2702,0.271,0.2734,0.2749,0.275,0.289,0.2891,0.3049,0,0,0,0.2534,0.2516,0.2559,0.2544,0.261,0.2658,0.2631,0.2698,0.2706,0.2734,0.2749,0.275,0.2888,0.2891,0.3041,0.3123,0,0,0,0.2512,0.2513,0.2532,0.2543,0.2599,0.2658,0.2678,0.27,0.272,0.2748,0.275,0.2887,0.289,0.3035,0.3112,0.326,0,0,0,0.2474,0.2496,0.2532,0.2567,0.2598,0.2672,0.2678,0.2716,0.2739,0.2749,0.2888,0.2891,0.3033,0.3105,0.3252,0.3217,0.3251,0,0,0.2477,0.2496,0.2519,0.2554,0.2632,0.2655,0.2767,0.2791,0.2786,0.2859,0.2863,0.3044,0.3111,0.3258,0.3375,0.3405,0,0,0,0.2503,0.2529,0.2554,0.2615,0.267,0.2798,0.2813,0.288,0.2993,0.2819,0.3056,0.3093,0.3182,0.3143,0.3168,0.3242,0.2904,0.2904,0.2903,0.2472,0.2529,0.2606,0.27,0.2763,0.2887,0.3013,0.3115,0.3057,0.3159,0.323,0.3461,0.3421,0.3439,0.3516,0.3232,0.3232,0.3233,0.3233,0.254,0.2639,0.2702,0.2803,0.2934,0.304,0.3254,0.3297,0.3518,0.3416,0.3494,0.332,0.3475,0.3547,0.3243,0.3242,0.324,0.3239,0.3239,0.2614,0.2682,0.2729,0.2892,0.3049,0.3181,0.34,0.3549,0.3669,0.3777,0.3725,0.3721,0.378,0.381,0.3811,0.3812,0.3813,0.3814,0.3814,0.2706,0.2763,0.2833,0.2994,0.3063,0.3246,0.3507,0.3656,0.3863,0.3916,0.3915,0.3876,0.3637,0.3608,0.3831,0.3828,0.3826,0.3824,0.3823,0.2858,0.2836,0.2936,0.2985,0.3117,0.3195,0.3458,0.3732,0.3947,0.4046,0.4169,0.3997,0.3952,0.3928,0.3907,0.4194,0.4194,0.4194,0.4194,0.2917,0.2933,0.2958,0.2978,0.3066,0.3155,0.3265,0.3572,0.4036,0.4273,0.4369,0.4223,0.4204,0.4166,0.4137,0.4115,0.445,0.445,0.4451,0.2979,0.2977,0.2965,0.2955,0.2987,0.3049,0.3065,0.3312,0.4084,0.4471,0.4502,0.4491,0.4279,0.4243,0.4166,0.412,0.4075,0,0]},{"header":{"parameterUnit":"m.s-1","parameterCategory":2,"la1":30.2992,"la2":30.254,"lo1":-89.0895,"lo2":-89.0443,"dy":0.0025,"dx":0.0025,"nx":19,"ny":19,"refTime":"2026-05-20T09:00:00:Z","depth":"0","parameterNumber":3,"parameterNumberName":"V-component_of_CURRENTS"},"data":[0,0,0,-0.013,-0.0132,-0.0229,-0.0229,-0.0364,-0.0365,0,0,0,0,0,0,0,0,0,0,0,-0.0098,-0.0099,-0.013,-0.0132,-0.0229,-0.0229,-0.0364,-0.0365,0,0,0,0,0,0,0,0,0,0,0,-0.0098,-0.0099,-0.0099,-0.0132,-0.0229,-0.0229,-0.0364,-0.0292,0,0,0,0,0,0,0,0,0,0,-0.0198,-0.0162,-0.0098,-0.0099,-0.0133,-0.0228,-0.0229,-0.0289,-0.0297,-0.0318,0,-0.0323,0,-0.0339,-0.0373,-0.0373,0,0,0,-0.015,-0.0155,-0.0177,-0.0099,-0.0133,-0.0228,-0.019,-0.0293,-0.0302,-0.0328,-0.0325,-0.033,-0.0342,-0.0374,-0.0374,-0.029,-0.0288,0,0,-0.0144,-0.0125,-0.0171,-0.0182,-0.0147,-0.0187,-0.0193,-0.0299,-0.0305,-0.0326,-0.0333,-0.0344,-0.0374,-0.0375,-0.0292,-0.0289,0,0,0,-0.0117,-0.0121,-0.0141,-0.0176,-0.0189,-0.0189,-0.0196,-0.0301,-0.0306,-0.0335,-0.0345,-0.0375,-0.0376,-0.0293,-0.0291,0.0003,0,0,0,-0.0115,-0.0104,-0.0138,-0.0129,-0.0186,-0.0244,-0.0196,-0.0299,-0.0311,-0.0345,-0.0375,-0.0377,-0.0295,-0.0292,-0.001,0.0169,0,0,0,-0.0096,-0.0102,-0.0108,-0.0127,-0.0161,-0.0243,-0.0255,-0.0302,-0.0317,-0.0373,-0.0378,-0.0297,-0.0293,-0.002,0.0148,0.0351,0,0,0,-0.008,-0.0075,-0.0108,-0.0104,-0.0159,-0.0168,-0.0255,-0.0296,-0.0337,-0.0376,-0.0295,-0.0291,-0.0024,0.0135,0.0338,0.0462,0.0536,0,0,-0.0061,-0.0072,-0.0068,-0.0099,-0.0059,-0.0157,-0.0067,-0.0173,-0.0269,-0.027,-0.0269,-0.0006,0.0147,0.0348,0.0706,0.0773,0,0,0,-0.0053,-0.0024,-0.003,-0.001,-0.0046,0.0056,-0.0069,-0.0045,-0.0005,-0.027,-0.0002,0.0086,0.0204,0.0249,0.0303,0.0078,-0.0271,-0.0272,-0.0272,0.0041,0.0042,0.0126,0.0157,0.0169,0.0189,0.0287,0.0312,0.0131,0.0234,0.0326,0.0688,0.0739,0.078,0.0547,0.0298,0.0299,0.03,0.0301,0.0218,0.0357,0.0348,0.0451,0.0526,0.0614,0.0707,0.0674,0.085,0.064,0.0738,0.0558,0.0857,0.0586,0.032,0.0316,0.0314,0.0312,0.0311,0.0438,0.053,0.0559,0.0747,0.0926,0.0957,0.1248,0.1232,0.1168,0.1283,0.1266,0.126,0.1022,0.1299,0.1301,0.1302,0.1304,0.1305,0.1306,0.0727,0.0761,0.091,0.1076,0.1197,0.1423,0.1587,0.1706,0.1754,0.1649,0.1648,0.1144,0.0992,0.0953,0.1333,0.1328,0.1325,0.1322,0.1321,0.1083,0.1052,0.1265,0.1382,0.166,0.1948,0.2053,0.2282,0.235,0.2401,0.1793,0.1831,0.1759,0.1711,0.1689,0.2237,0.2237,0.2238,0.2238,0.1301,0.1312,0.1536,0.1722,0.2014,0.2191,0.26,0.2721,0.2461,0.2249,0.2042,0.1781,0.1754,0.1659,0.1613,0.1577,0.2086,0.2085,0.2084,0.1498,0.1527,0.1711,0.1854,0.2142,0.2457,0.2822,0.3024,0.2533,0.2044,0.1722,0.1728,0.1291,0.1266,0.1052,0.1006,0.092,0,0]}],[{"header":{"parameterUnit":"m.s-1","parameterCategory":2,"la1":30.2992,"la2":30.254,"lo1":-89.0895,"lo2":-89.0443,"dy":0.0025,"dx":0.0025,"nx":19,"ny":19,"refTime":"2026-05-20T09:00:00:Z","depth":"2","parameterNumber":2,"parameterNumberName":"U-component_of_CURRENTS"},"data":[0,0,0,0.2251,0.2254,0.2472,0.2474,0.2697,0.2698,0,0,0,0,0,0,0,0,0,0,0,0.2186,0.2187,0.225,0.2255,0.2472,0.2474,0.2696,0.2698,0,0,0,0,0,0,0,0,0,0,0,0.2185,0.2187,0.2188,0.2255,0.2472,0.2474,0.2696,0.2553,0,0,0,0,0,0,0,0,0,0,0.2352,0.2296,0.2186,0.2188,0.2256,0.2472,0.2474,0.2547,0.2562,0.2572,0,0.2598,0,0.2633,0.2709,0.2709,0,0,0,0.2287,0.2284,0.2327,0.2188,0.2258,0.2471,0.2383,0.2556,0.2573,0.2591,0.2601,0.261,0.2637,0.271,0.2711,0.291,0.2911,0,0,0.2275,0.2245,0.2315,0.2337,0.2303,0.2376,0.2389,0.2567,0.2587,0.2602,0.2615,0.264,0.2711,0.2712,0.2909,0.291,0,0,0,0.2218,0.2236,0.2278,0.2327,0.236,0.2381,0.2397,0.2581,0.2589,0.2618,0.2643,0.2712,0.2714,0.2908,0.2909,0.3015,0,0,0,0.2213,0.2201,0.2272,0.2259,0.2357,0.2482,0.2406,0.2578,0.2599,0.2642,0.2712,0.2715,0.2907,0.2909,0.3009,0.3078,0,0,0,0.2178,0.2198,0.2216,0.2256,0.2333,0.248,0.2502,0.2585,0.2612,0.2709,0.2716,0.2906,0.2908,0.3005,0.3069,0.3197,0,0,0,0.215,0.2236,0.2216,0.2333,0.2331,0.2492,0.2502,0.2633,0.2721,0.2713,0.2907,0.2909,0.3003,0.3064,0.3191,0.3009,0.3024,0,0,0.2253,0.2248,0.2322,0.2309,0.2459,0.2465,0.2642,0.2745,0.2757,0.2847,0.2853,0.3011,0.3069,0.3196,0.3145,0.3155,0,0,0,0.2353,0.2389,0.244,0.2514,0.2601,0.2709,0.2772,0.2827,0.2953,0.2813,0.303,0.3063,0.314,0.3017,0.3026,0.292,0.292,0.292,0.292,0.2426,0.2477,0.2594,0.2663,0.2755,0.2874,0.2995,0.3071,0.3033,0.3109,0.3162,0.335,0.3217,0.3223,0.3164,0.3164,0.3164,0.3165,0.3165,0.2548,0.2608,0.2671,0.2796,0.2886,0.3009,0.3193,0.3225,0.3397,0.3306,0.3375,0.3148,0.3239,0.3174,0.3172,0.3171,0.317,0.3169,0.3169,0.2564,0.26,0.2671,0.2817,0.2969,0.3098,0.3285,0.3422,0.3508,0.3599,0.3458,0.3452,0.3434,0.3618,0.3619,0.362,0.3621,0.3621,0.3622,0.2538,0.2615,0.2671,0.2849,0.2919,0.3095,0.3362,0.3473,0.3579,0.3588,0.3585,0.3504,0.3489,0.3462,0.3635,0.3633,0.3631,0.363,0.3629,0.2516,0.2539,0.2616,0.2678,0.2871,0.2934,0.3217,0.3378,0.3567,0.3571,0.3594,0.359,0.3551,0.3538,0.3513,0.3691,0.3691,0.3691,0.3691,0.2439,0.2485,0.25,0.2564,0.2704,0.2839,0.2785,0.2841,0.3115,0.3177,0.3198,0.2991,0.3001,0.2919,0.2921,0.2877,0.289,0.2888,0.2886,0.235,0.2378,0.2339,0.2453,0.2589,0.2644,0.2426,0.2255,0.2518,0.2846,0.2968,0.3654,0.3399,0.3396,0.3305,0.3294,0.3238,0,0]},{"header":{"parameterUnit":"m.s-1","parameterCategory":2,"la1":30.2992,"la2":30.254,"lo1":-89.0895,"lo2":-89.0443,"dy":0.0025,"dx":0.0025,"nx":19,"ny":19,"refTime":"2026-05-20T09:00:00:Z","depth":"2","parameterNumber":3,"parameterNumberName":"V-component_of_CURRENTS"},"data":[0,0,0,-0.0093,-0.0095,-0.023,-0.0232,-0.0428,-0.0429,0,0,0,0,0,0,0,0,0,0,0,-0.0055,-0.0055,-0.0093,-0.0095,-0.023,-0.0232,-0.0427,-0.0429,0,0,0,0,0,0,0,0,0,0,0,-0.0055,-0.0055,-0.0055,-0.0095,-0.023,-0.0232,-0.0427,-0.0329,0,0,0,0,0,0,0,0,0,0,-0.0199,-0.0159,-0.0055,-0.0055,-0.0096,-0.023,-0.0232,-0.0325,-0.0335,-0.0359,0,-0.0359,0,-0.0376,-0.0439,-0.0439,0,0,0,-0.0137,-0.015,-0.0163,-0.0055,-0.0096,-0.023,-0.0181,-0.0331,-0.0343,-0.0373,-0.0362,-0.0369,-0.0379,-0.044,-0.044,-0.0449,-0.0448,0,0,-0.0129,-0.0112,-0.0154,-0.0169,-0.0104,-0.0176,-0.0185,-0.0338,-0.0353,-0.0363,-0.0373,-0.0383,-0.0441,-0.0442,-0.045,-0.0449,0,0,0,-0.008,-0.0106,-0.0117,-0.0161,-0.0172,-0.0179,-0.0189,-0.0348,-0.0343,-0.0376,-0.0385,-0.0442,-0.0443,-0.0451,-0.045,-0.0323,0,0,0,-0.0077,-0.0074,-0.0113,-0.0109,-0.0168,-0.026,-0.0195,-0.0334,-0.0351,-0.0384,-0.0442,-0.0445,-0.0452,-0.0451,-0.0329,-0.025,0,0,0,-0.0054,-0.0073,-0.0074,-0.0106,-0.0142,-0.0258,-0.0266,-0.0339,-0.0354,-0.0439,-0.0445,-0.0453,-0.0451,-0.0334,-0.0259,-0.0251,0,0,0,-0.0053,-0.0062,-0.0073,-0.0095,-0.014,-0.0181,-0.0266,-0.0343,-0.0411,-0.0442,-0.0452,-0.045,-0.0336,-0.0265,-0.0256,-0.0231,-0.0206,0,0,-0.0064,-0.0064,-0.0076,-0.0088,-0.0078,-0.0167,-0.0175,-0.031,-0.0375,-0.0414,-0.0415,-0.0327,-0.026,-0.0252,-0.0094,-0.0074,0,0,0,-0.0079,-0.0057,-0.0071,-0.0061,-0.0104,-0.0091,-0.0209,-0.0249,-0.0292,-0.0394,-0.0314,-0.0275,-0.0275,-0.027,-0.0253,-0.0439,-0.0439,-0.0439,-0.0439,-0.0033,-0.0032,-0.0012,0.001,0.0,-0.0052,-0.0066,-0.012,-0.0222,-0.0199,-0.0163,-0.0052,-0.0042,-0.003,-0.0167,-0.0167,-0.0166,-0.0166,-0.0166,0.004,0.0041,0.0094,0.0122,0.0142,0.0148,0.0114,0.0057,0.0043,-0.0031,-0.004,-0.0123,-0.0004,-0.0155,-0.0157,-0.0159,-0.016,-0.0161,-0.0161,0.0103,0.0085,0.0146,0.0203,0.0266,0.0257,0.0286,0.0267,0.0186,0.0201,0.0121,0.0118,-0.0001,0.016,0.0161,0.0161,0.0162,0.0162,0.0162,0.0082,0.0137,0.0164,0.0243,0.0277,0.0337,0.0373,0.0337,0.0307,0.0282,0.028,0.0056,0.0046,0.0017,0.0169,0.0168,0.0167,0.0166,0.0166,0.002,0.0043,0.0109,0.0149,0.024,0.0403,0.0428,0.0483,0.0404,0.0392,0.0299,0.0294,0.0244,0.0229,0.0204,0.0395,0.0395,0.0395,0.0395,-0.0073,-0.0048,0.003,0.011,0.02,0.0415,0.0646,0.0703,0.0605,0.055,0.0544,0.0496,0.0483,0.0441,0.0421,0.0398,0.064,0.0641,0.0641,-0.0177,-0.0112,-0.0067,0.0074,0.0209,0.0482,0.0904,0.1092,0.0807,0.0653,0.0609,0.0407,0.0315,0.0303,0.0213,0.0192,0.0143,0,0]}],[{"header":{"parameterUnit":"m.s-1","parameterCategory":2,"la1":30.2992,"la2":30.254,"lo1":-89.0895,"lo2":-89.0443,"dy":0.0025,"dx":0.0025,"nx":19,"ny":19,"refTime":"2026-05-20T09:00:00:Z","depth":"4","parameterNumber":2,"parameterNumberName":"U-component_of_CURRENTS"},"data":[0,0,0,0.1191,0.1193,0.1315,0.1315,0.1458,0.1459,0,0,0,0,0,0,0,0,0,0,0,0.116,0.1162,0.119,0.1193,0.1315,0.1315,0.1457,0.1459,0,0,0,0,0,0,0,0,0,0,0,0.116,0.1161,0.1163,0.1194,0.1315,0.1315,0.1457,0.137,0,0,0,0,0,0,0,0,0,0,0.1254,0.1226,0.1161,0.1163,0.1194,0.1315,0.1316,0.1366,0.1376,0.1396,0,0.1425,0,0.1437,0.1467,0.1468,0,0,0,0.12,0.1218,0.1249,0.1163,0.1195,0.1314,0.1262,0.1372,0.1382,0.1409,0.1427,0.1432,0.144,0.1468,0.1469,0.1619,0.1619,0,0,0.1193,0.1184,0.1241,0.1255,0.1239,0.1258,0.1266,0.1378,0.1395,0.1427,0.1435,0.1442,0.1469,0.147,0.1618,0.1619,0,0,0,0.1169,0.1179,0.1208,0.125,0.1269,0.1261,0.127,0.1391,0.14,0.1437,0.1444,0.147,0.1471,0.1617,0.1618,0.1796,0,0,0,0.1166,0.1165,0.1205,0.1201,0.1267,0.1333,0.128,0.1393,0.1405,0.1443,0.147,0.1472,0.1617,0.1618,0.1789,0.1719,0,0,0,0.1153,0.1163,0.118,0.12,0.1248,0.1331,0.1348,0.1396,0.1409,0.1468,0.1473,0.1616,0.1618,0.1783,0.1714,0.1693,0,0,0,0.1134,0.1134,0.1181,0.1202,0.1247,0.129,0.1347,0.1404,0.1451,0.147,0.1617,0.1618,0.1782,0.171,0.1691,0.1494,0,0,0,0.1108,0.1131,0.1144,0.1188,0.1214,0.1273,0.1343,0.1441,0.1487,0.1578,0.1582,0.1791,0.1713,0.1693,0.1592,0,0,0,0,0.1119,0.1133,0.1141,0.1194,0.1235,0.1324,0.1402,0.1494,0.1677,0.1523,0.1774,0.1715,0.1699,0.1578,0.1626,0.1626,0.1626,0.1626,0.1626,0.1046,0.1106,0.1143,0.1221,0.1266,0.1379,0.146,0.1606,0.1686,0.1825,0.1856,0.1931,0.1819,0.1923,0.1925,0.1925,0.1926,0.1927,0.1927,0.1035,0.1056,0.1186,0.1259,0.1369,0.147,0.161,0.1718,0.1893,0.1981,0.1963,0.1768,0.1944,0.1941,0.1938,0.1936,0.1935,0.1934,0.1933,0.0984,0.0995,0.1131,0.1271,0.1423,0.1533,0.1643,0.1812,0.1945,0.1999,0.1857,0.1966,0.195,0.2067,0.2067,0.2067,0.2066,0.2066,0.2066,0.0856,0.0978,0.1058,0.1231,0.1337,0.1477,0.1699,0.1772,0.1924,0.1895,0.2047,0.1973,0.1968,0.1952,0.2061,0.2062,0.2063,0.2063,0.2064,0.0732,0.0795,0.0884,0.0993,0.121,0.1303,0.1532,0.1669,0.1728,0.1704,0.1811,0.1825,0.1688,0.1688,0.1657,0.1683,0.168,0.1678,0,0.0606,0.0643,0.0734,0.0835,0.0961,0.1167,0.1255,0.1406,0.1517,0.1453,0.166,0.1771,0.1784,0.1622,0.1619,0.1576,0,0,0,0.0527,0.0552,0.057,0.0691,0.084,0.1051,0.1275,0.1284,0.1508,0.1547,0.1621,0.1636,0.1937,0.2048,0.1866,0.186,0.182,0,0]},{"header":{"parameterUnit":"m.s-1","parameterCategory":2,"la1":30.2992,"la2":30.254,"lo1":-89.0895,"lo2":-89.0443,"dy":0.0025,"dx":0.0025,"nx":19,"ny":19,"refTime":"2026-05-20T09:00:00:Z","depth":"4","parameterNumber":3,"parameterNumberName":"V-component_of_CURRENTS"},"data":[0,0,0,0.0185,0.0186,0.0217,0.0217,0.0204,0.0204,0,0,0,0,0,0,0,0,0,0,0,0.0186,0.0186,0.0185,0.0186,0.0217,0.0217,0.0204,0.0204,0,0,0,0,0,0,0,0,0,0,0,0.0185,0.0186,0.0187,0.0186,0.0217,0.0218,0.0204,0.0194,0,0,0,0,0,0,0,0,0,0,0.017,0.0167,0.0186,0.0187,0.0186,0.0217,0.0218,0.0194,0.0195,0.0174,0,0.019,0,0.019,0.0202,0.0202,0,0,0,0.0187,0.0167,0.0184,0.0187,0.0186,0.0217,0.0203,0.0195,0.0195,0.0174,0.019,0.019,0.019,0.0201,0.0201,0.0196,0.0196,0,0,0.0185,0.0179,0.0184,0.0185,0.0208,0.0202,0.0204,0.0196,0.0195,0.019,0.0189,0.0189,0.0201,0.0201,0.0196,0.0196,0,0,0,0.0179,0.0177,0.0196,0.0185,0.0192,0.0203,0.0206,0.0196,0.0205,0.0189,0.0189,0.0201,0.0201,0.0195,0.0196,0.0224,0,0,0,0.0178,0.0174,0.0195,0.019,0.0193,0.0198,0.0206,0.0206,0.0205,0.0189,0.0201,0.02,0.0195,0.0196,0.0223,0.0257,0,0,0,0.0182,0.0173,0.0184,0.019,0.0203,0.0199,0.0207,0.0206,0.0204,0.0201,0.02,0.0195,0.0196,0.0222,0.0254,0.0249,0,0,0,0.0164,0.0226,0.0184,0.0253,0.0203,0.0276,0.0207,0.0259,0.0271,0.0201,0.0195,0.0196,0.0222,0.0253,0.0248,0.0298,0,0,0,0.0243,0.0235,0.028,0.0245,0.0325,0.0271,0.0315,0.0299,0.0258,0.0194,0.0194,0.0224,0.0254,0.0249,0.0324,0,0,0,0,0.0307,0.0334,0.036,0.0382,0.0407,0.0382,0.0366,0.0318,0.0263,0.0264,0.0225,0.0244,0.0239,0.0265,0.0198,0.0198,0.0198,0.0198,0.0198,0.0391,0.0401,0.0453,0.0462,0.0489,0.0459,0.0431,0.0348,0.0319,0.0285,0.0267,0.0287,0.0316,0.0255,0.0255,0.0255,0.0255,0.0255,0.0256,0.0462,0.0472,0.0468,0.0518,0.0489,0.0502,0.0437,0.0396,0.0318,0.0282,0.0275,0.0294,0.0258,0.0258,0.0257,0.0257,0.0257,0.0257,0.0257,0.0459,0.0464,0.0481,0.0509,0.0521,0.0519,0.052,0.0459,0.0359,0.0349,0.0361,0.0307,0.0303,0.034,0.034,0.034,0.0341,0.0341,0.0341,0.0433,0.0452,0.0499,0.0523,0.0561,0.0597,0.058,0.0548,0.046,0.0417,0.0365,0.0315,0.0313,0.0308,0.0343,0.0342,0.0342,0.0342,0.0342,0.0453,0.047,0.0537,0.0585,0.0673,0.0691,0.0692,0.0623,0.0576,0.0502,0.0434,0.0428,0.0422,0.0417,0.0415,0.0483,0.0484,0.0485,0,0.0478,0.0485,0.0611,0.0703,0.0769,0.0771,0.0764,0.0708,0.0575,0.0578,0.0536,0.0462,0.0457,0.0453,0.0449,0.045,0,0,0,0.0519,0.055,0.065,0.0738,0.0824,0.0791,0.0763,0.0734,0.061,0.0567,0.0505,0.05,0.0433,0.0349,0.0327,0.0323,0.0314,0,0]}]]